This is the latest recevied weather packets stored in our database for station/object IU4KCH-20. If no packets are shown the sender has not sent any weather packets the latest 10 day(s).
| Time | Temp. | Humidity | Pressure | Rain* | Wind** | Luminosity | Snow |
|---|---|---|---|---|---|---|---|
| 1777856417 | 19.44° C | 40% | 1013.9 hPa | - | - | - | - |
| 1777855516 | 19.44° C | 40% | 1014 hPa | - | - | - | - |
| 1777854615 | 19.44° C | 41% | 1014.1 hPa | - | - | - | - |
| 1777853714 | 18.89° C | 42% | 1014.2 hPa | - | - | - | - |
| 1777852814 | 19.44° C | 41% | 1014.2 hPa | - | - | - | - |
| 1777851913 | 19.44° C | 42% | 1014.3 hPa | - | - | - | - |
| 1777851012 | 19.44° C | 41% | 1014.4 hPa | - | - | - | - |
| 1777850112 | 19.44° C | 42% | 1014.5 hPa | - | - | - | - |
| 1777849210 | 19.44° C | 41% | 1014.5 hPa | - | - | - | - |
| 1777848309 | 20° C | 41% | 1014.5 hPa | - | - | - | - |
| 1777847409 | 20° C | 41% | 1014.4 hPa | - | - | - | - |
| 1777846515 | 20° C | 41% | 1014.4 hPa | - | - | - | - |
| 1777845607 | 20° C | 41% | 1014.3 hPa | - | - | - | - |
| 1777844707 | 20.56° C | 40% | 1014.2 hPa | - | - | - | - |
| 1777843805 | 20.56° C | 40% | 1014.1 hPa | - | - | - | - |
| 1777842904 | 21.11° C | 36% | 1014 hPa | - | - | - | - |
| 1777842004 | 21.67° C | 35% | 1013.8 hPa | - | - | - | - |
| 1777841103 | 21.67° C | 36% | 1013.7 hPa | - | - | - | - |
| 1777840202 | 22.22° C | 36% | 1013.6 hPa | - | - | - | - |
| 1777839301 | 22.22° C | 37% | 1013.7 hPa | - | - | - | - |
| 1777838673 | 22.22° C | 37% | 1013.8 hPa | - | - | - | - |
| 1777838400 | 22.22° C | 37% | 1013.8 hPa | - | - | - | - |
| 1777837500 | 22.22° C | 37% | 1013.5 hPa | - | - | - | - |
| 1777836599 | 22.78° C | 37% | 1013.4 hPa | - | - | - | - |
| 1777835699 | 23.33° C | 36% | 1013.2 hPa | - | - | - | - |
* Rain since midnight (hover to see other rain measurements)
** Current wind speed in m/s (hover to see current wind gust speed)